This is the latest recevied weather packets stored in our database for station/object WA6ODQ-13. If no packets are shown the sender has not sent any weather packets the latest 1 day(s).
| Time | Temp. | Humidity | Pressure | Rain* | Wind** | Luminosity | Snow |
|---|---|---|---|---|---|---|---|
| 1778019642 | 18.33° C | 74% | 1013.4 hPa | 0 mm | 1.34 m/s, 177° | 66 W/m² | - |
| 1778019339 | 18.33° C | 74% | 1013.5 hPa | 0 mm | 0.89 m/s, 189° | 71 W/m² | - |
| 1778019036 | 18.33° C | 73% | 1013.5 hPa | 0 mm | 0.89 m/s, 274° | 90 W/m² | - |
| 1778018733 | 18.33° C | 73% | 1013.8 hPa | 0 mm | 0.89 m/s, 152° | 116 W/m² | - |
| 1778018431 | 18.89° C | 73% | 1013.7 hPa | 0 mm | 1.34 m/s, 165° | 127 W/m² | - |
| 1778018129 | 19.44° C | 72% | 1013.6 hPa | 0 mm | 0.45 m/s, 146° | 140 W/m² | - |
| 1778017826 | 20.56° C | 71% | 1013.4 hPa | 0 mm | 0.89 m/s, 204° | 186 W/m² | - |
| 1778017524 | 21.11° C | 67% | 1013.6 hPa | 0 mm | 0.45 m/s, 336° | 289 W/m² | - |
| 1778017221 | 20.56° C | 68% | 1013.6 hPa | 0 mm | 0.89 m/s, 207° | 889 W/m² | - |
| 1778016919 | 20° C | 70% | 1013.8 hPa | 0 mm | 0.45 m/s, 166° | 909 W/m² | - |
| 1778016615 | 19.44° C | 73% | 1013.7 hPa | 0 mm | 0.89 m/s, 226° | 850 W/m² | - |
| 1778016311 | 18.89° C | 74% | 1013.9 hPa | 0 mm | 0.45 m/s, 126° | 630 W/m² | - |
| 1778016009 | 18.33° C | 77% | 1013.8 hPa | 0 mm | 0.45 m/s, 194° | 334 W/m² | - |
| 1778015706 | 18.33° C | 75% | 1013.7 hPa | 0 mm | 0.45 m/s, 179° | 229 W/m² | - |
| 1778015402 | 17.78° C | 76% | 1013.9 hPa | 0 mm | 0 m/s | 209 W/m² | - |
| 1778015099 | 17.78° C | 76% | 1014 hPa | 0 mm | 0 m/s | 588 W/m² | - |
| 1778014795 | 18.33° C | 75% | 1013.9 hPa | 0 mm | 0.45 m/s, 243° | 129 W/m² | - |
| 1778014494 | 18.33° C | 75% | 1013.9 hPa | 0 mm | 0 m/s | 97 W/m² | - |
| 1778014190 | 18.89° C | 72% | 1014.1 hPa | 0 mm | 0 m/s | 95 W/m² | - |
| 1778013889 | 18.89° C | 72% | 1013.9 hPa | 0 mm | 0.45 m/s, 346° | 121 W/m² | - |
| 1778013586 | 18.89° C | 71% | 1014 hPa | 0 mm | 0.45 m/s, 337° | 161 W/m² | - |
| 1778013282 | 18.89° C | 73% | 1014 hPa | 0 mm | 0.89 m/s, 5° | 161 W/m² | - |
| 1778012978 | 18.89° C | 74% | 1013.9 hPa | 0 mm | 0 m/s | 169 W/m² | - |
| 1778012675 | 18.89° C | 74% | 1013.9 hPa | 0 mm | 0.45 m/s, 175° | 391 W/m² | - |
| 1778012371 | 19.44° C | 74% | 1013.9 hPa | 0 mm | 0.45 m/s, 158° | 893 W/m² | - |
* Rain latest hour (hover to see other rain measurements)
** Current wind speed in m/s (hover to see current wind gust speed)